Regional Weather Roundup
Issued by NWS Newport/Morehead, NC

Current Version | Previous Version | Text Only | Print | Product List | Glossary On
Versions: 1 2 3 4 5 6 7 8 9 10 11 12 13 14 15 16 17 18 19 20 21 22 23 24 25 26 27 28 29 30 31 32 33 34 35 36 37 38 39 40 41 42 43 44 45 46 47 48 49 50
000
ASUS42 KMHX 301113
RWRMHX
WEATHER ROUNDUP FOR EASTERN NORTH CAROLINA
NATIONAL WEATHER SERVICE NEWPORT/MOREHEAD CITY NC
700 AM EDT SAT JUL 30 2016

NOTE: "FAIR" INDICATES FEW OR NO CLOUDS BELOW 12,000 FEET
WITH NO SIGNIFICANT WEATHER AND/OR OBSTRUCTIONS TO VISIBILITY

NCZ015>017-031-032-045>047-102-103-301200-
NORTH COAST

CITY           SKY/WX    TMP DP  RH WIND       PRES   REMARKS
EDENTON        PTCLDY    78  78 100 CALM      29.97R
ELIZABETH CITY CLEAR     76  74  93 CALM      29.97R
KITTY HAWK     SUNNY     76  76 100 CALM      29.96R
MANTEO           N/A     74  74 100 CALM      29.97R

$$

NCZ045>047-081-094-103-104-301200-
CENTRAL COAST

CITY           SKY/WX    TMP DP  RH WIND       PRES   REMARKS
FRISCO         CLEAR     79  77  94 NE5       29.97R

$$

NCZ095-097-098-100-101-301200-
SOUTHERN COAST

CITY           SKY/WX    TMP DP  RH WIND       PRES   REMARKS
BEAUFORT       CLOUDY    81  80  97 NE3       29.96R
CEDAR ISLAND   NOT AVBL
JACKSONVILLE   CLOUDY    80  73  79 S3        29.96R
PINEY ISLAND   NOT AVBL
WILMINGTON     MOCLDY    81  78  91 W5        29.96R


$$

NCZ011>013-027>030-043-044-078>080-089-090>093-098-301200-
COASTAL PLAIN

CITY           SKY/WX    TMP DP  RH WIND       PRES   REMARKS
AHOSKIE        CLEAR     73  73  98 CALM      29.97R FOG
CLINTON        CLEAR     75  75  99 CALM      29.95S
ELIZABETHTOWN  MOCLDY    77  76  97 CALM      29.96R
GOLDSBORO      CLOUDY    76  76 100 E2        29.94R
GREENVILLE     CLEAR     77  77 100 CALM      29.98R
HAVELOCK       MOCLDY    78  76  93 CALM      29.97R
KENANSVILLE    NOT AVBL
KINSTON        CLEAR     79  75  89 CALM      29.97R
NEW BERN       PTCLDY    78  75  90 CALM      29.97R
RICHLANDS      PTCLDY    76  75  97 CALM      29.97R
ROCKY MOUNT    CLEAR     75  75 100 CALM      29.96R
WASHINGTON     CLEAR     76  74  96 CALM      29.97R
WHITEVILLE     CLEAR     77  75  93 CALM      29.95R

$$

AMZ130-135-150-152-154-156-158-170-250-252-270-ANZ085-086-088-633-658-670-301200-
MARINE OBSERVATIONS

STATION/POSITION TIME  TEMP    WIND        PRES    WAVE   SWELL
                       AIR SEA DIR/SP/G            HT/PER HT/PER
                 (UTC) (F)     (DEG/KT/KT) (MB)    (FT/S) (FT/S)
CHESAPEAKE LIGHT NOT AVBL
64 E VA BEACH    1050   81 83   80/  6/  8 1014.7    3/ 7   2/ 7
DUCK             1000   79 71   40/  3/  3 1013.8
2 E DUCK         1011      79                N/A     1/ 8
OREGON INLET     1000   77 79   40/  3/  4 1014.3
13E OREGON INLT  1100      78                N/A     2/ 5   2/ 5
HATTERAS CG      1000   80 83   90/  3/  4 1013.8
DIAMOND BUOY     1050   84 86   40/  4/  6 1014.7    2/ 6   2/ 6
CAPE LOOKOUT     1100   83     180/  3/  6 1014.3
BEAUFORT LAB     1000   82 83  360/  2/  4 1013.2
30 SE NEW RVR IN 1008   84 85  250/ 10/ 12 1013.9
30 SE NEW RVR IN 1025      85                N/A     3/ 5
27 SE WRIGHTSVLE 1008   84 84  240/ 14/ 17 1014.1
5 SE WRIGHTSVLE  1008   81 80  250/  4/  6 1014.7
225 S CAPE HAT   1050   84 84  210/ 10/ 12 1017.0    3/ 6   2/ 6
41 SE CHARLESTON 1050   85 86  230/ 16/ 17 1013.9    4/ 5

$$



USA.gov is the U.S. government's official web portal to all federal, state and local government web resources and services.